Location: downtown San Diego
(32.7310°N, 117.1990°W)
Time: 23:50:49
(UTC-07:00)

YAOGAN 11 - Pass Details

Date: 19 May 2017
Orbit: 614 x 666 km, 98.3° (Epoch: 24 July)

Event Time Altitude Azimuth Distance (km) Brightness Sun altitude
Exits shadow 21:59:25 82° 50° (NE) 624 3.9 -24.0°
Drops below altitude 10° 22:03:38 10° 349° (N) 1,980 7.4 -24.6°
Sets 22:05:49 0° 349° (N) 2,893 8.4 -24.9°
